[[{"header":{"parameterUnit":"m.s-1","parameterCategory":1,"la1":30.2991,"la2":30.254,"lo1":-89.0895,"lo2":-89.0444,"dy":0.0017,"dx":0.0017,"nx":28,"ny":28,"refTime":"2024-02-16T09:00:00:Z","depth":0,"parameterNumber":2,"parameterNumberName":"U-component_of_WINDS"},"data":[0,0,0,0,0,0,0,0,0,0,0,0,0,0,0,0,0,0,0,0,0,0,0,0,0,0,0,0,0,0,0,0,0,0,0,0,0,0,0,0,0,0,0,0,0,0,0,0,0,0,0,0,0,0,0,0,0,0,0.2593,0.2594,0,0.2685,0.2686,0.2687,0.2696,0.2695,0.2694,0.2693,0.2792,0.2795,0.2799,0,0,0,0,0,0,0,0,0,0,0,0,0,0.243,0.2433,0.2592,0.2594,0.2595,0.2685,0.2686,0.2687,0.2696,0.2695,0.2694,0.2693,0.2791,0.2795,0.2799,0,0,0,0,0,0,0,0,0,0,0,0,0,0.2509,0.2433,0.2592,0.261,0.2612,0.2685,0.2686,0.2688,0.2696,0.2695,0.2694,0.2692,0.2789,0.2795,0.28,0.2862,0,0,0.2816,0.2818,0,0,0,0,0,0,0,0,0.2505,0.2515,0.2606,0.2609,0.2612,0.2677,0.2665,0.2746,0.2697,0.2665,0.2693,0.2691,0.2755,0.2763,0.2784,0.2867,0.2871,0.2817,0.282,0.2822,0.2824,0,0,0,0,0,0,0,0.2499,0.2511,0.2629,0.2608,0.2611,0.2615,0.2625,0.2681,0.2717,0.2667,0.2668,0.2679,0.2757,0.2779,0.2786,0.2872,0.2816,0.2821,0.2824,0.2826,0.3015,0.3017,0,0,0,0,0,0,0.249,0.2507,0.2626,0.2632,0.2553,0.2619,0.263,0.2658,0.2717,0.2724,0.268,0.2679,0.2771,0.278,0.279,0.2869,0.2822,0.2827,0.283,0.3013,0.3015,0.3017,0,0,0,0,0,0,0.2486,0.25,0.2623,0.257,0.2585,0.2624,0.2655,0.2661,0.2683,0.2726,0.2733,0.2696,0.277,0.2783,0.2845,0.2872,0.2829,0.2834,0.3011,0.3014,0.3016,0.3026,0,0,0,0,0,0,0.2481,0.2499,0.2521,0.257,0.2588,0.2674,0.2656,0.2663,0.2691,0.2691,0.2743,0.275,0.277,0.2837,0.285,0.2879,0.2838,0.3009,0.3012,0.3015,0.3023,0.3029,0.3033,0,0,0,0,0,0.2475,0.252,0.2522,0.2536,0.2617,0.2675,0.2686,0.2706,0.2693,0.2718,0.2746,0.2748,0.2867,0.2843,0.2858,0.2889,0.3007,0.3011,0.3015,0.3021,0.3028,0.3033,0,0,0,0,0,0,0.2474,0.2527,0.2529,0.2591,0.2629,0.2676,0.2707,0.2712,0.2755,0.2753,0.2778,0.279,0.2852,0.2877,0.2849,0.2954,0.2936,0.2943,0.2936,0.2942,0.2947,0.294,0.2843,0,0,0,0,0,0.2481,0.2522,0.2567,0.2617,0.2636,0.2668,0.2694,0.2707,0.2748,0.2764,0.2797,0.2837,0.2884,0.2915,0.296,0.3027,0.304,0.3056,0.3061,0.3065,0.3071,0.3112,0.3121,0.3031,0.3031,0.3031,0,0,0.2495,0.2529,0.2554,0.2618,0.2648,0.2693,0.2681,0.2728,0.2763,0.2772,0.2832,0.2858,0.2906,0.2971,0.3002,0.2994,0.3099,0.307,0.3073,0.3077,0.3117,0.3126,0.3133,0.3034,0.3033,0.3033,0,0,0.2545,0.2574,0.262,0.2651,0.2698,0.272,0.2731,0.2779,0.2796,0.2858,0.2866,0.2908,0.2988,0.3022,0.305,0.3116,0.3121,0.313,0.3156,0.3196,0.3203,0.3209,0.3235,0.3244,0.3136,0.3136,0.3136,0,0.2557,0.2623,0.2643,0.2691,0.272,0.273,0.2779,0.2808,0.2868,0.2889,0.2879,0.2981,0.3013,0.3089,0.3105,0.3126,0.3142,0.3124,0.32,0.3206,0.3213,0.3238,0.3247,0.3137,0.3137,0.3137,0.3137,0,0.2637,0.2683,0.2715,0.2772,0.2805,0.2853,0.2883,0.2914,0.2925,0.2949,0.3013,0.3053,0.3108,0.3127,0.3138,0.3205,0.3199,0.3194,0.3176,0.3222,0.3246,0.3255,0.3138,0.3138,0.3138,0.3138,0,0,0.2687,0.2756,0.2768,0.2795,0.2848,0.2885,0.2935,0.2988,0.3016,0.3057,0.3102,0.317,0.3167,0.3199,0.3214,0.3248,0.3302,0.324,0.3242,0.3252,0.3381,0.3385,0.3396,0.3305,0.3307,0.3309,0.3378,0,0.2744,0.2831,0.2852,0.2928,0.2972,0.2984,0.3028,0.3067,0.3092,0.3135,0.3162,0.3211,0.3202,0.3222,0.3256,0.3288,0.3328,0.3283,0.3349,0.3351,0.3337,0.3408,0.3411,0.3475,0.3387,0.3389,0.339,0,0.2821,0.2864,0.2944,0.2994,0.3014,0.3052,0.3104,0.3145,0.3191,0.3206,0.3243,0.3256,0.3312,0.3291,0.337,0.3338,0.3367,0.3387,0.339,0.3397,0.3373,0.3419,0.3495,0.3505,0.3405,0.3403,0.3402,0,0.2851,0.2929,0.2988,0.3011,0.307,0.3098,0.3125,0.3169,0.3201,0.3247,0.3268,0.3321,0.335,0.3391,0.3419,0.3401,0.3496,0.3477,0.3513,0.3512,0.3532,0.3531,0.3616,0.3549,0.3549,0.3549,0.3549,0,0.2912,0.2961,0.3003,0.3039,0.3095,0.3121,0.3176,0.3204,0.3244,0.3287,0.3301,0.3342,0.3376,0.3423,0.3445,0.3508,0.3521,0.3537,0.3543,0.3536,0.3535,0.3556,0.3553,0.3552,0.3551,0.355,0.355,0,0.2955,0.2985,0.305,0.3102,0.3116,0.3156,0.3201,0.3238,0.3264,0.332,0.3334,0.3375,0.3431,0.3463,0.3534,0.3549,0.362,0.3623,0.3604,0.3606,0.3641,0.3638,0.3743,0.376,0.3681,0.3681,0.3682,0,0.2993,0.3031,0.3087,0.3117,0.3144,0.3192,0.3224,0.3252,0.3286,0.3343,0.3374,0.3431,0.3477,0.3567,0.3604,0.3659,0.3665,0.3698,0.3673,0.3666,0.3667,0.3665,0.367,0.3702,0.3703,0.3704,0.3704,0,0.3057,0.3071,0.3116,0.3168,0.3206,0.3248,0.329,0.3315,0.335,0.3388,0.3445,0.3481,0.3554,0.3611,0.367,0.37,0.3709,0.3712,0.3723,0.3717,0.3706,0.3714,0.3617,0.3709,0.3709,0.3708,0.3708,0.3708,0.31,0.3135,0.3181,0.3232,0.3267,0.3307,0.3345,0.3376,0.3424,0.3484,0.3499,0.3559,0.3608,0.3688,0.3719,0.3769,0.3763,0.3779,0.3784,0.3788,0.379,0.3697,0.378,0.378,0.378,0.378,0.3779,0,0.3166,0.3197,0.3244,0.3303,0.3344,0.3348,0.3396,0.3431,0.3483,0.3527,0.3573,0.3641,0.3697,0.374,0.3798,0.383,0.3836,0.3845,0.3843,0.3851,0.379,0.3775,0.3839,0.3839,0.3839,0.3839,0.3839,0.3839,0.3206,0.3267,0.3286,0.3366,0.3397,0.3455,0.3483,0.3521,0.3556,0.363,0.3677,0.3704,0.3749,0.3811,0.3864,0.3875,0.3897,0.3905,0.3918,0.3861,0.3854,0.3848,0.3834,0.3909,0.3909,0.3974,0.3974,0.3975]},{"header":{"parameterUnit":"m.s-1","parameterCategory":1,"la1":30.2991,"la2":30.254,"lo1":-89.0895,"lo2":-89.0444,"dy":0.0017,"dx":0.0017,"nx":28,"ny":28,"refTime":"2024-02-16T09:00:00:Z","depth":0,"parameterNumber":3,"parameterNumberName":"V-component_of_WINDS"},"data":[0,0,0,0,0,0,0,0,0,0,0,0,0,0,0,0,0,0,0,0,0,0,0,0,0,0,0,0,0,0,0,0,0,0,0,0,0,0,0,0,0,0,0,0,0,0,0,0,0,0,0,0,0,0,0,0,0,0,-5.9325,-5.9324,0,-5.9223,-5.9222,-5.9221,-5.9174,-5.9174,-5.9174,-5.9174,-5.9058,-5.9054,-5.9051,0,0,0,0,0,0,0,0,0,0,0,0,0,-5.9465,-5.9463,-5.9325,-5.9324,-5.9322,-5.9224,-5.9222,-5.9221,-5.9174,-5.9174,-5.9174,-5.9174,-5.9059,-5.9055,-5.9051,0,0,0,0,0,0,0,0,0,0,0,0,0,-5.9388,-5.9462,-5.9325,-5.9287,-5.9283,-5.9224,-5.9222,-5.922,-5.9174,-5.9174,-5.9174,-5.9174,-5.906,-5.9055,-5.905,-5.9017,0,0,-5.9036,-5.9034,0,0,0,0,0,0,0,0,-5.9392,-5.9383,-5.9294,-5.929,-5.9285,-5.9212,-5.9229,-5.9152,-5.9174,-5.9215,-5.9174,-5.9174,-5.9108,-5.9099,-5.9079,-5.9012,-5.9007,-5.9035,-5.9032,-5.903,-5.9029,0,0,0,0,0,0,0,-5.9398,-5.9387,-5.9284,-5.9293,-5.9287,-5.9271,-5.9261,-5.9214,-5.9161,-5.9211,-5.9208,-5.9197,-5.9105,-5.9084,-5.9076,-5.9005,-5.9035,-5.9031,-5.9028,-5.9026,-5.8903,-5.8902,0,0,0,0,0,0,-5.9411,-5.9392,-5.9287,-5.9281,-5.9341,-5.9269,-5.9257,-5.9235,-5.9162,-5.9151,-5.9197,-5.9195,-5.9092,-5.9082,-5.9072,-5.9027,-5.903,-5.9026,-5.9023,-5.8903,-5.8903,-5.8902,0,0,0,0,0,0,-5.9414,-5.9402,-5.9292,-5.9335,-5.932,-5.9266,-5.9242,-5.9233,-5.9212,-5.9151,-5.914,-5.9186,-5.9092,-5.9079,-5.9032,-5.9023,-5.9024,-5.9019,-5.8904,-5.8903,-5.8902,-5.8939,0,0,0,0,0,0,-5.9419,-5.9404,-5.9394,-5.9336,-5.9318,-5.9257,-5.9241,-5.9231,-5.9205,-5.9202,-5.9138,-5.9127,-5.9091,-5.9039,-5.9027,-5.9016,-5.9016,-5.8904,-5.8903,-5.8903,-5.8938,-5.894,-5.8941,0,0,0,0,0,-5.9424,-5.9406,-5.9394,-5.9381,-5.9305,-5.9257,-5.9246,-5.9209,-5.9205,-5.9192,-5.9153,-5.9129,-5.9026,-5.9035,-5.9021,-5.9008,-5.8904,-5.8904,-5.8903,-5.8938,-5.8939,-5.8941,0,0,0,0,0,0,-5.946,-5.9397,-5.9383,-5.9347,-5.9308,-5.9249,-5.9232,-5.9212,-5.917,-5.9169,-5.912,-5.9105,-5.9062,-5.903,-5.9041,-5.8971,-5.8963,-5.8959,-5.8994,-5.8995,-5.8996,-5.9004,-5.9012,0,0,0,0,0,-5.9464,-5.9434,-5.938,-5.9352,-5.9334,-5.9287,-5.9264,-5.9239,-5.9195,-5.9177,-5.9134,-5.9089,-5.9046,-5.9019,-5.8976,-5.8933,-5.8917,-5.8917,-5.8919,-5.892,-5.8917,-5.8889,-5.8888,-5.8899,-5.8899,-5.8899,0,0,-5.9472,-5.9434,-5.9417,-5.9359,-5.9326,-5.9292,-5.9273,-5.9238,-5.9211,-5.917,-5.9125,-5.9091,-5.9037,-5.8992,-5.897,-5.8964,-5.891,-5.8919,-5.892,-5.8916,-5.8888,-5.8888,-5.8887,-5.8899,-5.8899,-5.8899,0,0,-5.9468,-5.9438,-5.9411,-5.9379,-5.9331,-5.93,-5.9293,-5.9237,-5.9215,-5.9169,-5.9138,-5.9102,-5.903,-5.8993,-5.8964,-5.8946,-5.8921,-5.8932,-5.8939,-5.8913,-5.8912,-5.8911,-5.8903,-5.89,-5.893,-5.893,-5.893,0,-5.9482,-5.9435,-5.9399,-5.9367,-5.9341,-5.9306,-5.9277,-5.9246,-5.9184,-5.9165,-5.916,-5.9068,-5.9029,-5.8974,-5.897,-5.8948,-5.8937,-5.8939,-5.8916,-5.8914,-5.8913,-5.8904,-5.8901,-5.8931,-5.8931,-5.8931,-5.8931,0,-5.9453,-5.942,-5.9404,-5.935,-5.9322,-5.9291,-5.9247,-5.9222,-5.9199,-5.9167,-5.9118,-5.907,-5.9017,-5.9002,-5.8977,-5.8942,-5.894,-5.8926,-5.8917,-5.8914,-5.8905,-5.8902,-5.8934,-5.8933,-5.8933,-5.8932,0,0,-5.947,-5.9398,-5.9392,-5.9367,-5.9311,-5.9282,-5.9247,-5.92,-5.9178,-5.9136,-5.9104,-5.9043,-5.903,-5.8998,-5.8968,-5.8946,-5.8932,-5.8934,-5.8932,-5.8934,-5.8888,-5.8898,-5.8895,-5.8916,-5.8915,-5.8914,-5.8892,0,-5.9458,-5.94,-5.9367,-5.9321,-5.9288,-5.9254,-5.9224,-5.9184,-5.9152,-5.9116,-5.9079,-5.9037,-5.9024,-5.9004,-5.898,-5.8939,-5.8922,-5.894,-5.8881,-5.888,-5.8896,-5.8891,-5.8902,-5.8883,-5.8888,-5.8887,-5.8887,0,-5.9436,-5.94,-5.9352,-5.9299,-5.9284,-5.9258,-5.921,-5.9178,-5.913,-5.9108,-5.9072,-5.9043,-5.9001,-5.8996,-5.8935,-5.8948,-5.8922,-5.8897,-5.8895,-5.8888,-5.8883,-5.8881,-5.8876,-5.8873,-5.8881,-5.8882,-5.8882,0,-5.9452,-5.939,-5.9353,-5.9332,-5.927,-5.9252,-5.9224,-5.9177,-5.915,-5.9106,-5.9087,-5.9038,-5.901,-5.8971,-5.8927,-5.8928,-5.887,-5.8861,-5.8847,-5.8848,-5.8836,-5.8837,-5.8825,-5.8821,-5.8821,-5.8821,-5.8821,0,-5.9442,-5.9414,-5.936,-5.9337,-5.9303,-5.9263,-5.9228,-5.9197,-5.9155,-5.9123,-5.9088,-5.9057,-5.9002,-5.8963,-5.8928,-5.8882,-5.8869,-5.8848,-5.8839,-5.8851,-5.8853,-5.8832,-5.8832,-5.882,-5.882,-5.8821,-5.8821,0,-5.9454,-5.9417,-5.9374,-5.9319,-5.9304,-5.9282,-5.9232,-5.9206,-5.9173,-5.9132,-5.912,-5.9066,-5.9018,-5.8972,-5.8905,-5.8882,-5.8835,-5.8824,-5.8853,-5.8848,-5.8836,-5.8838,-5.8809,-5.8802,-5.8804,-5.8804,-5.8804,0,-5.945,-5.9428,-5.9371,-5.9349,-5.9323,-5.9287,-5.926,-5.9218,-5.9191,-5.9134,-5.9114,-5.9065,-5.9023,-5.8947,-5.8899,-5.8848,-5.8834,-5.8827,-5.8825,-5.8838,-5.8832,-5.8833,-5.883,-5.8828,-5.8828,-5.8828,-5.8829,0,-5.9445,-5.9428,-5.9393,-5.9351,-5.9321,-5.9284,-5.9246,-5.9228,-5.9178,-5.9148,-5.9101,-5.9069,-5.9004,-5.8953,-5.8897,-5.8862,-5.8836,-5.883,-5.8824,-5.8835,-5.8853,-5.8842,-5.8855,-5.883,-5.883,-5.883,-5.883,-5.883,-5.9448,-5.9427,-5.9384,-5.9345,-5.9313,-5.9278,-5.9251,-5.9216,-5.9177,-5.9124,-5.91,-5.9052,-5.9001,-5.8923,-5.8889,-5.8848,-5.8841,-5.8832,-5.883,-5.8828,-5.883,-5.8861,-5.8837,-5.8837,-5.8837,-5.8837,-5.8837,0,-5.9441,-5.9413,-5.9377,-5.9327,-5.9296,-5.9278,-5.9234,-5.9208,-5.9167,-5.9125,-5.9085,-5.9029,-5.898,-5.8929,-5.8876,-5.8852,-5.8838,-5.8839,-5.884,-5.8832,-5.884,-5.885,-5.8851,-5.8851,-5.8851,-5.8851,-5.8851,-5.8851,-5.9434,-5.9397,-5.9375,-5.9319,-5.9288,-5.9245,-5.9221,-5.9187,-5.9153,-5.9094,-5.9055,-5.9024,-5.8976,-5.8919,-5.8871,-5.8857,-5.8838,-5.8842,-5.8824,-5.8832,-5.8831,-5.8831,-5.884,-5.8839,-5.8839,-5.8819,-5.8819,-5.8819]}]]